Temp_Advection
nan nan nan nan nan nan nan nan nan nan nan nan nan nan nan nan nan nan nan nan nan nan nan nan nan nan nan nan nan nan nan nan nan nan nan nan nan nan nan nan nan nan nan nan nan
nan -0 -0 -0 -0 -0 -0 -0 -0 -0 -0 0 0 -0 -0 -1 -3 -1 0 0 0 0 -0 -0 -0 -0 -0 -0 0 -0 -0 -1 -1 -0 -0 -1 -0 -0 -0 -1 -1 -1 -1 -0 nan
nan -0 0 -0 -0 -0 -0 -0 0 -0 -0 -0 0 -0 0 -0 -2 -0 0 -0 -0 -0 -0 -0 -0 -0 -0 0 0 0 -0 -0 -1 -1 -0 -0 -1 -1 0 -0 -1 -0 -0 -0 nan
nan -0 -0 -0 -0 -0 -0 0 0 0 -0 -0 0 -1 -1 -1 -0 -0 0 0 0 0 -0 -0 -0 0 0 -0 0 -0 -0 -0 -0 -0 -0 -0 -1 -1 -0 -0 -1 -1 -0 -0 nan
nan 0 -0 -0 -0 -0 -0 0 0 0 -0 -0 0 -0 -1 -1 -3 -0 0 -0 -0 0 0 -0 -0 -0 -0 -0 -0 -0 -0 -1 -1 -1 -1 -0 -0 -0 -1 -1 -1 -1 -1 -1 nan
nan -0 -0 -0 -0 -0 0 0 0 0 1 1 0 0 -0 -1 -1 0 0 0 0 0 -0 -0 -0 -0 0 0 -0 -0 -0 -1 -1 -1 -1 -0 -1 -1 -0 -1 -1 -0 -0 -1 nan
nan 0 -0 -0 -0 -0 0 0 -0 0 1 1 0 0 -2 -6 -1 1 0 0 0 0 -0 -0 0 -0 -0 -0 -0 0 -0 -1 -0 -0 -0 -0 0 -1 -2 -1 -1 -1 -1 -0 nan
nan 0 0 -0 -0 -0 -0 0 0 -0 1 1 0 -0 -2 -2 -0 -0 0 0 0 0 -0 -0 -0 0 -0 -0 -0 -0 0 -0 -0 0 0 0 -1 -0 -0 -0 -1 -1 -1 -2 nan
nan -0 -0 0 -0 -0 -0 -0 -0 0 1 0 0 -0 -2 -1 -1 -0 -0 0 0 0 -0 -0 -0 0 0 0 -0 0 0 -1 -0 0 0 0 -0 0 -2 -1 -1 -1 -2 -2 nan
nan -0 -0 0 0 -0 -0 0 0 0 0 -0 0 -1 -3 -1 -0 0 -0 0 0 -0 0 0 1 0 -0 -0 -0 -0 -0 -0 -0 -0 -0 -0 -1 -1 -0 -0 -0 -1 -1 -2 nan
nan 0 -0 0 0 0 0 0 -0 0 -1 -1 -1 -1 -0 -0 0 0 0 0 0 0 0 0 0 -0 -1 -0 -0 -0 0 -0 -1 -0 -0 -0 -0 -1 -0 -0 -0 -1 -1 -1 nan
nan -0 0 0 0 0 -0 -0 -0 0 -0 -1 -0 -1 -2 0 -0 0 0 0 0 0 0 -0 -0 -1 -0 -0 -0 0 -0 -1 -1 -0 0 0 -1 -1 -0 -0 -0 -0 0 -0 nan
nan -0 0 0 0 0 -0 -0 0 0 -0 -1 0 0 -1 -0 -0 -1 -0 0 0 -0 0 0 -0 -0 0 -0 -0 0 -0 -0 0 -0 0 0 -1 -2 -1 -0 -0 -0 0 1 nan
nan -0 0 0 0 -0 -1 -0 0 0 -0 -1 -0 -0 -1 -0 -1 -2 0 1 0 0 -0 -0 -1 0 0 -0 0 0 -0 -0 -0 -0 -0 -0 -1 -2 -0 -0 -0 -1 -0 -0 nan
nan 0 0 0 -0 -0 -0 0 0 0 0 -0 -0 -0 -0 -0 0 -0 1 0 -0 0 -0 -0 0 0 -0 0 0 0 -0 -0 -0 -0 -0 -0 -0 -1 -1 -0 -0 -0 -0 1 nan
nan -0 0 -0 -0 -0 0 0 0 -0 -1 -1 -0 -0 -0 -0 -0 -0 -0 0 1 0 0 -0 0 0 0 0 -0 -0 0 -0 -0 -0 -0 -0 -0 -0 -0 -0 -0 -2 -1 -0 nan
nan -0 -0 0 0 -0 0 0 -0 -0 -0 -0 -0 -0 -0 -0 -0 0 -0 1 0 -0 -0 -0 0 0 0 -0 0 -0 -0 0 -0 -0 -0 -0 0 0 -1 -2 -1 -1 -1 -0 nan
nan -0 0 0 -0 -0 0 0 -0 -1 -1 0 -0 -0 0 -0 -0 0 0 0 -0 -0 -0 0 -0 -0 0 -0 -0 -0 0 -0 -0 0 -0 -0 0 -0 -2 -2 -3 -0 -1 -0 nan
nan 0 0 0 -0 0 0 -0 -1 -0 -0 0 -0 0 -0 -0 0 0 0 -0 -0 -0 -0 -0 -0 -0 -0 -0 -0 -0 -0 0 0 0 -0 -0 0 -1 -1 -0 -1 -1 -1 -0 nan
nan -0 -0 0 0 1 0 -0 -1 -1 -0 -0 0 0 -0 0 0 0 0 -0 0 -0 -0 0 -0 -0 -0 -0 -0 -0 -0 -0 -0 -0 -0 0 -0 0 -0 -0 -0 -0 -0 -0 nan
nan -0 0 0 1 1 0 -0 -1 -0 -0 0 0 0 -0 -0 0 0 0 0 0 -0 0 0 0 -0 0 0 -0 -0 -0 -0 -0 0 -0 -0 -0 0 0 -0 -1 -1 -0 -0 nan
nan 0 0 1 0 0 -0 -0 -0 -0 0 0 -0 0 0 0 0 0 0 0 0 0 0 -0 0 0 0 0 -0 -0 -0 -0 -0 -0 0 0 0 -0 -0 -0 -1 -1 -1 -1 nan
nan 0 0 1 0 -0 -0 -0 -0 -0 0 0 0 0 -0 0 0 0 0 0 0 -0 0 -0 0 0 -0 -0 0 0 -0 -0 -0 -0 0 -0 0 -0 0 -0 -1 -1 -1 -1 nan
nan 0 0 0 0 -0 -0 -0 -0 0 -0 -0 -0 0 0 0 0 0 0 -0 0 -0 0 0 0 -0 -0 -0 0 0 -0 -0 -0 -0 -0 -0 0 0 -0 0 -0 -1 -1 -1 nan
nan -0 0 -0 -0 -0 0 -0 0 -0 -0 -0 -0 1 0 0 0 0 0 0 0 0 -0 -0 0 -0 -0 -0 -0 -0 0 0 -0 -0 0 0 -0 -0 -0 -0 -0 -0 -1 -1 nan
nan -0 -0 -0 -0 0 0 -0 -0 -1 0 0 0 -1 -0 0 0 0 -0 0 0 0 0 -0 0 -0 -0 -1 -0 0 0 0 0 -0 -1 -0 -0 -0 -0 -0 -0 -0 -1 -1 nan
nan nan nan nan nan nan nan nan nan nan nan nan nan nan nan nan nan nan nan nan nan nan nan nan nan nan nan nan nan nan nan nan nan nan nan nan nan nan nan nan nan nan nan nan nan
Wind_Speed
22 22 22 22 22 22 22 22 22 23 24 24 24 27 25 27 26 25 22 17 11 7 3 6 7 7 5 2 3 2 2 3 5 2 6 22 13 12 24 18 27 12 4 3 9
22 22 22 21 21 21 21 21 21 23 23 25 24 24 23 26 26 27 12 2 3 6 3 7 9 7 2 4 3 4 4 6 7 4 11 24 20 24 13 21 17 24 20 15 10
22 22 22 22 22 22 22 22 22 21 21 21 21 21 20 21 22 2 8 10 3 6 11 12 9 7 4 5 6 5 7 4 14 22 25 24 28 27 10 4 15 18 24 24 22
22 22 22 22 22 20 19 18 17 18 19 18 18 18 15 15 3 2 9 9 7 18 16 8 3 3 3 3 6 5 10 16 15 16 18 14 26 20 14 13 25 27 25 26 24
20 19 18 17 17 17 16 16 17 17 19 18 15 15 13 8 20 14 17 20 24 14 10 6 5 2 3 3 10 5 5 11 22 25 26 30 24 22 28 36 28 30 31 28 31
15 15 15 16 16 16 16 16 17 17 17 15 14 12 11 9 4 3 8 13 9 9 10 9 6 6 11 4 2 11 17 15 14 19 22 19 24 18 22 32 42 41 40 39 33
13 14 14 16 16 16 16 16 17 17 15 11 13 12 15 33 17 19 19 19 16 14 13 8 8 12 10 7 6 13 12 13 8 9 6 28 31 10 28 30 37 41 46 40 37
13 13 14 15 16 17 16 16 16 15 13 9 12 15 15 18 19 19 17 22 20 19 16 13 13 15 8 8 10 6 5 3 4 1 9 8 33 4 18 20 26 25 28 34 40
13 13 15 15 15 17 16 15 15 11 7 9 12 13 15 6 9 5 13 17 23 20 20 16 18 11 7 3 4 3 6 8 4 10 4 2 20 3 31 23 24 26 35 39 38
13 14 14 14 14 15 14 10 7 4 6 11 13 8 16 6 5 7 7 8 10 8 10 16 10 4 0 4 5 6 6 7 3 6 3 8 25 25 21 18 22 30 32 35 33
14 15 14 13 13 14 8 4 3 4 17 15 11 11 5 6 5 12 12 11 8 8 6 7 4 9 16 9 8 4 9 17 14 6 8 9 23 19 19 20 27 31 25 22 11
15 14 14 13 13 7 7 6 5 4 12 22 31 35 36 21 6 18 17 15 11 6 4 2 12 12 8 8 12 13 15 17 20 8 6 9 22 22 23 20 26 26 24 14 26
15 14 12 11 7 10 10 7 4 4 7 9 27 26 27 27 19 24 22 18 5 8 8 10 6 9 10 11 14 14 16 16 15 5 5 7 14 21 13 19 20 24 27 19 33
15 14 11 8 9 15 16 6 3 5 3 6 9 9 16 10 9 34 36 17 5 11 6 9 19 15 14 10 9 10 3 4 3 5 7 6 11 30 9 11 7 16 6 32 21
17 14 12 15 8 19 9 8 8 1 3 1 5 4 13 14 4 5 29 18 18 7 7 8 1 8 14 16 5 2 2 3 1 1 4 4 3 11 18 17 10 2 24 32 30
18 15 15 18 23 13 6 16 12 4 9 4 8 8 8 9 3 7 10 16 15 7 9 8 2 6 7 4 4 7 3 1 2 2 3 4 7 5 6 5 5 17 16 24 29
17 17 20 22 26 20 15 19 3 5 3 5 6 9 10 8 4 4 7 11 6 4 5 3 5 5 6 4 3 4 5 3 3 3 6 3 2 4 12 16 14 17 22 13 19
16 15 18 21 20 23 28 5 7 8 11 3 3 1 9 8 8 9 6 6 5 3 3 5 6 8 5 9 7 5 7 4 6 3 4 4 3 5 15 25 30 27 24 27 15
12 10 18 23 23 29 27 10 11 6 4 7 15 9 7 9 8 11 13 14 10 10 9 5 5 2 6 4 8 5 4 2 2 3 1 3 3 11 11 12 17 19 21 18 23
8 10 19 25 26 35 14 10 11 11 10 6 4 6 5 7 7 10 8 1 11 11 7 6 6 4 3 6 3 6 7 3 2 4 4 3 4 2 1 2 9 9 15 14 12
9 5 8 23 27 19 6 10 14 17 8 9 7 5 4 2 3 5 7 1 2 1 9 5 5 4 6 8 10 4 4 2 3 2 2 2 2 2 4 6 7 9 13 11 18
9 4 7 20 8 3 6 11 16 6 13 14 4 5 6 5 3 3 8 6 4 2 4 2 4 7 12 4 9 10 11 10 3 4 2 2 2 5 7 5 14 13 11 14 14
7 6 10 23 8 10 3 8 7 5 10 5 13 9 7 6 4 4 2 3 7 4 5 6 3 2 2 4 1 7 8 11 10 3 5 3 2 10 8 15 12 14 15 16 15
7 2 7 14 9 7 7 6 9 12 11 9 8 9 5 6 5 6 4 2 3 5 13 10 4 5 4 3 4 5 8 9 9 3 3 6 7 6 14 11 12 14 16 15 14
9 5 8 5 6 11 7 6 16 8 9 2 6 14 11 6 6 5 3 4 3 13 5 6 5 5 7 3 4 5 2 8 12 12 7 6 9 10 8 10 13 12 11 11 11
10 5 8 5 8 16 8 11 17 14 12 7 7 13 8 8 6 8 8 4 5 4 5 3 2 2 2 11 3 4 3 2 2 2 8 15 10 10 14 14 11 9 9 10 12
22 20 6 7 5 9 14 18 11 16 9 23 17 15 9 6 7 5 8 13 8 7 4 6 4 3 3 7 5 5 2 5 5 7 6 6 6 10 9 9 9 10 9 9 9
Wind_Direction
282 283 284 287 290 292 295 298 298 298 298 298 299 303 305 303 303 300 300 295 297 294 67 44 2 0 332 294 242 196 48 232 249 269 264 310 324 329 328 325 328 333 297 279 195
276 279 282 283 284 287 289 291 292 293 294 294 293 297 307 307 311 303 297 216 99 109 91 335 332 307 288 250 262 150 178 231 212 251 286 297 297 301 314 311 311 320 325 322 258
273 274 277 279 281 284 287 290 290 291 293 292 293 296 304 308 320 336 126 130 144 311 312 310 297 280 249 231 221 220 230 248 276 286 290 291 297 303 280 267 287 295 304 307 317
271 274 276 279 281 283 284 286 288 291 295 296 297 298 303 307 293 206 185 202 247 309 309 300 258 214 233 234 235 290 268 283 293 308 324 306 304 302 293 296 302 289 288 294 288
268 270 272 274 277 281 281 284 283 286 290 294 293 295 305 284 264 260 246 254 274 275 295 278 281 269 239 269 323 270 269 302 305 308 307 304 288 284 290 299 291 291 290 282 282
261 262 266 270 274 278 281 283 283 282 286 280 291 274 282 267 293 177 238 241 243 268 276 280 242 260 300 268 297 303 304 306 322 322 309 294 288 296 288 297 295 293 288 281 273
258 262 267 272 276 278 281 285 282 283 284 267 287 273 264 261 281 265 238 240 235 242 241 273 256 276 309 331 299 307 308 311 292 262 274 293 283 261 289 292 286 288 289 285 273
263 266 271 276 279 282 285 283 280 284 280 251 284 270 259 296 276 268 242 233 224 216 231 243 262 278 280 287 312 325 287 303 218 157 264 260 277 204 311 317 310 311 313 314 287
267 272 277 280 282 286 288 284 281 282 252 236 277 262 268 284 263 225 212 224 220 234 244 250 243 255 267 310 349 269 265 253 325 217 279 237 289 73 321 308 310 309 308 310 312
264 270 273 276 282 287 290 289 286 250 202 235 240 276 254 252 248 194 167 175 193 207 233 221 193 147 94 121 232 222 262 277 252 299 296 308 287 299 305 311 307 304 306 308 314
266 270 273 274 276 281 256 194 158 252 217 202 198 214 218 329 229 185 182 163 188 204 192 178 171 200 213 206 233 251 265 272 273 251 302 292 280 290 288 293 296 296 303 325 124
267 270 274 274 270 269 238 198 185 297 283 255 252 251 249 258 288 204 188 176 182 191 151 307 237 227 210 216 240 247 259 267 282 280 315 302 283 288 284 283 275 287 287 139 122
268 269 267 268 268 228 242 243 206 296 274 246 242 236 237 239 228 220 195 193 170 186 195 202 223 203 208 223 241 245 251 270 267 339 197 296 288 285 285 266 281 284 286 181 164
269 267 258 247 205 211 235 225 167 282 333 270 211 247 191 196 237 229 212 203 204 212 198 237 228 240 247 243 244 267 339 42 12 17 298 88 297 294 282 291 285 299 94 122 126
267 265 244 220 218 201 212 189 159 180 347 172 170 175 178 175 324 197 209 198 226 211 162 223 141 213 233 241 178 227 123 109 118 38 354 175 245 270 333 310 316 122 118 121 128
268 261 238 223 218 220 190 159 154 95 247 305 149 155 158 219 276 116 154 194 224 221 251 246 236 171 214 155 151 139 96 120 79 125 261 188 197 316 3 353 32 81 87 116 115
268 257 237 229 213 198 175 167 115 197 274 221 196 156 182 181 213 168 161 194 162 150 236 318 216 182 145 147 154 104 81 307 321 230 239 339 224 300 351 9 311 122 101 51 90
268 257 229 218 206 192 170 173 204 216 228 37 82 162 198 156 224 214 172 195 250 160 148 188 303 163 185 200 182 159 160 182 230 234 282 304 248 20 47 27 34 80 92 98 67
260 232 214 211 199 194 169 197 210 207 191 231 284 278 248 208 189 195 213 217 200 176 189 191 246 277 173 154 140 155 185 178 293 239 344 227 107 55 24 46 42 44 48 58 79
249 224 223 212 205 190 196 212 220 226 275 329 256 214 234 219 189 188 171 221 227 189 168 207 252 242 168 106 143 152 153 109 123 228 239 257 89 145 125 79 104 72 68 58 67
212 218 220 209 197 203 214 210 231 228 254 250 232 246 239 275 152 177 190 156 168 316 202 148 151 273 139 201 171 151 187 150 161 207 244 295 171 219 242 147 121 124 114 91 64
202 215 199 189 205 209 203 210 231 238 234 250 285 221 219 184 218 226 192 189 146 140 185 312 151 222 214 186 181 192 199 181 156 224 225 105 215 191 211 169 149 134 107 78 59
219 188 191 189 203 217 241 214 237 236 223 238 221 210 206 198 208 222 259 115 157 107 180 157 188 216 269 344 225 194 210 203 196 119 200 175 204 188 110 124 108 96 83 71 57
199 161 185 205 227 223 198 213 221 233 248 253 255 239 211 196 199 189 172 224 185 140 140 147 170 225 231 182 151 170 200 188 171 170 208 196 151 178 127 130 111 96 90 78 61
207 201 201 179 220 217 175 240 218 229 218 312 248 224 200 201 202 207 160 156 148 161 152 134 197 219 259 190 184 195 179 220 201 207 186 194 138 133 114 110 101 95 82 72 63
191 189 194 163 189 205 197 214 231 221 222 221 214 267 198 178 183 193 156 190 188 202 137 129 181 28 280 266 259 229 220 94 192 51 73 120 114 129 124 108 85 72 63 55 43
213 233 236 179 166 185 216 226 238 224 246 229 208 215 222 213 157 153 175 172 168 151 167 144 145 157 231 203 263 298 225 120 113 45 139 170 160 141 117 104 97 92 79 65 47
Height
1531 1531 1531 1530 1530 1530 1529 1528 1527 1526 1525 1524 1523 1521 1518 1515 1513 1512 1510 1510 1510 1509 1510 1511 1511 1510 1508 1508 1509 1511 1520 1525 1515 1506 1498 1492 1494 1494 1495 1493 1490 1488 1484 1482 1481
1527 1526 1527 1527 1526 1526 1525 1525 1523 1523 1522 1520 1520 1518 1516 1512 1510 1505 1504 1505 1507 1508 1508 1509 1509 1509 1507 1507 1508 1508 1519 1511 1502 1500 1498 1492 1493 1489 1492 1489 1487 1486 1484 1484 1483
1522 1522 1522 1522 1522 1521 1521 1521 1520 1519 1518 1517 1516 1515 1514 1511 1509 1503 1503 1505 1506 1507 1506 1506 1507 1508 1506 1505 1505 1504 1505 1499 1498 1499 1498 1493 1487 1488 1485 1487 1487 1484 1482 1480 1479
1518 1518 1518 1518 1518 1517 1517 1517 1516 1516 1516 1514 1513 1512 1512 1511 1512 1504 1503 1503 1503 1505 1505 1504 1505 1505 1505 1504 1500 1503 1497 1498 1497 1497 1496 1492 1487 1481 1484 1483 1482 1479 1479 1477 1476
1513 1514 1514 1514 1513 1513 1513 1512 1512 1512 1511 1511 1510 1510 1511 1508 1502 1502 1501 1500 1500 1502 1504 1504 1504 1504 1505 1501 1500 1498 1495 1495 1496 1495 1492 1486 1479 1481 1478 1475 1474 1473 1471 1470 1469
1509 1509 1510 1510 1509 1509 1509 1509 1508 1508 1507 1510 1508 1509 1509 1506 1496 1495 1495 1495 1497 1498 1502 1503 1503 1504 1503 1500 1501 1496 1494 1493 1493 1494 1490 1483 1470 1476 1475 1473 1464 1466 1464 1463 1463
1504 1505 1505 1506 1505 1504 1504 1504 1503 1504 1505 1505 1506 1508 1505 1490 1491 1490 1491 1491 1493 1494 1497 1501 1503 1504 1502 1499 1497 1495 1492 1490 1491 1490 1488 1482 1456 1474 1470 1470 1463 1461 1458 1457 1456
1501 1501 1502 1502 1501 1500 1500 1499 1499 1500 1501 1502 1504 1507 1495 1486 1482 1479 1483 1485 1489 1492 1494 1498 1501 1501 1502 1501 1497 1497 1494 1494 1486 1487 1484 1485 1456 1467 1468 1465 1462 1460 1458 1454 1452
1497 1497 1499 1498 1497 1496 1495 1495 1495 1496 1497 1500 1502 1507 1491 1481 1478 1477 1476 1479 1484 1490 1491 1494 1497 1498 1501 1503 1508 1501 1502 1490 1490 1482 1483 1484 1466 1460 1465 1463 1459 1457 1454 1449 1448
1491 1493 1493 1495 1493 1492 1491 1492 1492 1493 1495 1497 1500 1507 1486 1479 1476 1476 1475 1478 1482 1487 1491 1490 1492 1495 1500 1506 1513 1504 1500 1492 1493 1487 1482 1485 1465 1454 1461 1460 1458 1454 1450 1447 1444
1487 1490 1489 1489 1488 1487 1490 1492 1494 1495 1490 1481 1483 1482 1480 1478 1476 1476 1475 1476 1482 1485 1488 1485 1493 1495 1491 1494 1490 1492 1493 1488 1484 1482 1479 1481 1465 1457 1454 1457 1452 1447 1447 1447 1444
1484 1484 1484 1485 1484 1485 1487 1489 1488 1490 1482 1476 1474 1473 1473 1477 1477 1474 1475 1476 1478 1483 1485 1488 1485 1482 1486 1490 1490 1491 1491 1485 1469 1472 1476 1475 1463 1456 1446 1449 1447 1442 1441 1446 1449
1478 1480 1479 1481 1481 1483 1485 1487 1488 1488 1483 1466 1462 1458 1463 1468 1467 1467 1469 1470 1474 1480 1481 1484 1477 1476 1482 1486 1486 1486 1485 1479 1478 1475 1473 1475 1466 1449 1443 1438 1437 1437 1435 1441 1440
1473 1475 1475 1477 1482 1480 1481 1485 1488 1488 1491 1462 1459 1450 1453 1460 1458 1454 1461 1468 1472 1473 1477 1477 1473 1475 1477 1479 1479 1483 1480 1478 1480 1482 1482 1478 1477 1433 1437 1433 1434 1432 1429 1432 1443
1468 1470 1471 1472 1474 1476 1479 1482 1486 1490 1505 1449 1449 1448 1448 1455 1449 1447 1453 1463 1465 1468 1471 1468 1465 1472 1475 1473 1475 1478 1478 1480 1482 1484 1488 1474 1489 1438 1436 1434 1435 1433 1433 1432 1441
1463 1465 1464 1466 1469 1475 1479 1482 1486 1493 1494 1448 1444 1446 1453 1452 1448 1448 1453 1460 1460 1467 1465 1464 1462 1465 1467 1469 1471 1476 1479 1480 1483 1487 1497 1467 1474 1454 1448 1444 1443 1444 1450 1442 1441
1456 1457 1457 1459 1461 1471 1477 1481 1487 1490 1449 1442 1441 1443 1443 1447 1448 1447 1451 1457 1461 1471 1470 1462 1460 1460 1462 1471 1471 1474 1481 1488 1500 1487 1481 1459 1464 1458 1456 1452 1445 1444 1448 1458 1450
1450 1451 1449 1453 1459 1466 1471 1478 1477 1449 1446 1433 1434 1437 1441 1441 1444 1444 1449 1456 1454 1455 1465 1469 1467 1457 1455 1458 1465 1473 1477 1488 1486 1483 1475 1459 1469 1468 1469 1467 1455 1454 1455 1452 1462
1445 1445 1447 1449 1456 1461 1465 1465 1453 1444 1438 1440 1436 1439 1438 1434 1436 1439 1442 1444 1444 1449 1458 1462 1459 1448 1449 1451 1456 1473 1480 1471 1479 1481 1490 1466 1460 1460 1474 1472 1470 1467 1468 1468 1461
1440 1442 1442 1446 1450 1454 1458 1452 1441 1438 1436 1438 1442 1435 1436 1432 1435 1435 1439 1437 1440 1439 1440 1449 1454 1448 1446 1450 1455 1460 1466 1478 1484 1481 1471 1455 1464 1471 1472 1475 1470 1472 1471 1472 1472
1438 1439 1437 1442 1447 1449 1440 1440 1437 1436 1438 1439 1437 1437 1434 1432 1429 1434 1433 1435 1436 1437 1437 1443 1449 1452 1446 1447 1451 1459 1461 1466 1471 1476 1469 1463 1466 1471 1473 1473 1475 1473 1468 1470 1464
1433 1433 1434 1436 1441 1438 1433 1433 1433 1431 1435 1436 1434 1432 1434 1432 1431 1430 1433 1430 1435 1437 1441 1445 1448 1453 1444 1437 1438 1442 1447 1456 1471 1472 1469 1470 1462 1469 1470 1471 1474 1474 1472 1466 1461
1428 1428 1431 1433 1433 1433 1435 1431 1431 1429 1429 1429 1430 1428 1427 1430 1435 1431 1429 1432 1433 1434 1438 1443 1453 1451 1448 1444 1440 1440 1442 1444 1452 1462 1462 1469 1461 1464 1466 1469 1472 1471 1469 1468 1468
1424 1423 1427 1427 1426 1428 1428 1427 1426 1428 1428 1427 1425 1426 1424 1424 1424 1430 1430 1430 1432 1436 1438 1441 1449 1449 1442 1434 1434 1438 1435 1437 1446 1460 1455 1454 1456 1460 1467 1470 1473 1475 1474 1473 1472
1415 1415 1416 1418 1422 1422 1421 1420 1421 1425 1422 1423 1423 1420 1420 1424 1422 1426 1428 1432 1433 1434 1437 1441 1448 1443 1435 1429 1431 1430 1430 1429 1434 1441 1448 1444 1450 1462 1468 1472 1474 1476 1477 1477 1477
1410 1410 1412 1411 1415 1420 1420 1414 1415 1414 1417 1420 1423 1423 1416 1417 1418 1423 1425 1431 1432 1432 1435 1437 1447 1447 1443 1431 1428 1429 1427 1428 1429 1434 1445 1446 1458 1464 1470 1472 1474 1475 1477 1476 1475
1402 1404 1405 1404 1409 1413 1409 1408 1408 1411 1410 1409 1411 1414 1410 1410 1414 1416 1417 1421 1424 1428 1436 1439 1444 1445 1437 1437 1437 1440 1431 1430 1439 1444 1444 1451 1450 1463 1470 1472 1475 1477 1477 1476 1476